Flag for Botswana Weather past 2 weeks in Francistown, Botswana

Now
50 °F

Sunny.


Feels Like: 50 °F
Forecast: 35 / 81 °F
Wind: No wind

Location: Francistown Airport

Current Time: Aug 23, 2014 at 8:35:39 AM

Latest Report: Aug 23, 2014 at 8:00 AM


Visibility: 10 mi

Pressure: 30.15 "Hg

Humidity: 22%

Dew point: 12 °F

Location of FrancistownLocation

Historic Weather in Francistown — Graph

°F

Francistown temperature yesterday

Maximum temperature yesterday: 82 °F (at 1:00 PM)
Minimum temperature yesterday: 52 °F (at 6:00 AM)
Average temperature yesterday: 69 °F

Past Weeks' High & Low Weather Summary

 TemperatureHumidityPressure
High90 °F (Aug 21, 3:00 PM)100% (Aug 14, 6:00 AM)30.39 "Hg (Aug 14, 6:00 AM)
Low28 °F (Aug 23, 7:00 AM)6% (Aug 22, 2:00 PM)29.95 "Hg (Aug 21, 3:00 PM)
Average63 °F48%30.18 "Hg
* Reported Aug 8 7:00 AM — Aug 23 7:00 AM, Francistown, Weather by CustomWeather, © 2014

Note: Actual official high and low records may vary slightly from our data, if they occured in-between our weather recording intervals... More about our weather records

Advertising

Francistown weather history for previous 24 hours

 ConditionsComfort  
Time TempWeatherWind HumidityBarometerVisibility
7:00 AM
Aug 23
28 °FSunny.6 mph55%30.12 "Hg10 mi
6:00 AM30 °FSunny.2 mph51%30.09 "Hg10 mi
5:00 AM32 °FClear.3 mph40%30.07 "Hg10 mi
3:00 AM36 °FClear.3 mph35%30.07 "Hg10 mi
12:00 AM48 °FClear.3 mph21%30.09 "Hg10 mi
11:00 PM
Aug 22
59 °FClear.5 mph12%30.09 "Hg10 mi
9:00 PM61 °FClear.6 mph12%30.09 "Hg10 mi
8:00 PM66 °FClear.2 mph10%30.07 "Hg10 mi
7:00 PM70 °FClear.6 mph8%30.04 "Hg10 mi
6:00 PM77 °FClear.7 mph7%30.04 "Hg10 mi
5:00 PM81 °FPassing clouds.9 mph7%30.01 "HgN/A
4:00 PM82 °FPassing clouds.7 mph7%30.01 "HgN/A
3:00 PM82 °FPassing clouds.9 mph7%30.01 "HgN/A
2:00 PM82 °FPassing clouds.7 mph6%30.01 "HgN/A
1:00 PM82 °FSunny.5 mph9%30.04 "Hg10 mi
12:00 PM79 °FSunny.6 mph11%30.07 "Hg10 mi
11:00 AM75 °FPassing clouds.8 mph13%30.09 "HgN/A
10:00 AM72 °FSunny.13 mph16%30.09 "Hg10 mi
8:00 AM64 °FSunny.5 mph30%30.07 "Hg10 mi
Weather by CustomWeather, © 2014

See weather overviewHow to use our weather pages